Location: Gandikunta
(16.3784°N, 80.8378°E)
Time: 20:10:22
(UTC+00:00)

NOSS 3-1 (C) - Pass Details

Date: 19 May 2025
Orbit: 632 x 1571 km, 63.4° (Epoch: 17 June)

Event Time Altitude Azimuth Distance (km) Brightness Sun altitude
Rises 14:46:14 0° 211° (SSW) 2,946 6.0 -23.5°
Reaches altitude 10° 14:48:32 10° 214° (SSW) 2,009 5.2 -24.0°
Maximum altitude 14:52:54 64° 295° (WNW) 702 2.9 -24.9°
Drops below altitude 10° 14:57:30 10° 18° (NNE) 2,104 5.4 -25.8°
Sets 14:59:57 0° 21° (NNE) 3,101 6.3 -26.3°
